Location: *
(39.6167°S, 171.5333°W)
Time: 19:12:41
(UTC+00:00)

CORIOLIS - Pass Details

Date: 13 May 2021
Orbit: 817 x 839 km, 98.7° (Epoch: 19 June)

Event Time Altitude Azimuth Distance (km) Brightness Sun altitude
Rises 16:56:07 0° 17° (NNE) 3,339 7.7 -16.7°
Reaches altitude 10° 16:58:26 10° 17° (NNE) 2,416 6.9 -16.2°
Maximum altitude 17:03:48 85° 104° (ESE) 839 4.2 -15.2°
Drops below altitude 10° 17:09:16 10° 192° (SSW) 2,459 6.4 -14.2°
Sets 17:11:38 0° 192° (SSW) 3,402 7.1 -13.7°
